Location: Bailleul
(50.3375°N, 2.8513°E)
Time: 04:03:32
(UTC+00:00)

Cosmos 44 - Pass Details

Date: 19 April 2021
Orbit: 571 x 791 km, 65.1° (Epoch: 09 May)

Event Time Altitude Azimuth Distance (km) Brightness Sun altitude
Rises 19:45:57 0° 203° (SSW) 3,101 6.6 -9.0°
Reaches altitude 10° 19:48:16 10° 200° (SSW) 2,218 5.8 -9.3°
Maximum altitude 19:53:16 56° 123° (ESE) 898 3.5 -10.0°
Drops below altitude 10° 19:58:31 10° 46° (NE) 2,339 5.9 -10.7°
Sets 20:01:01 0° 42° (NE) 3,286 6.7 -11.0°
